STARLINK-4792 (53862 NORAD) Tracking and Keplerian Element Data

This shows tracking and keplerian element data for the satellite.

Feedback or suggestion? Click here.




ElementValue
Catalog53862
NameSTARLINK-4792
Epoch Orbit1053
Epoch Day325.33334491
Epoch Year2022
RAAN305.5507
Inclination53.2142
Eccentricity0.0004089
Argument of Perigee5.547
Mean Anonmoly66.9534
Mean Motion15.73186768
Decay Rate0.00076615
L11 53862U 22114AW 22325.33334491 .00076615 00000+0 54546-3 0 9999
L22 53862 53.2142 305.5507 0004089 5.5470 66.9534 15.73186768 10534



Live tracking and technical data element details for STARLINK-4792 (NORAD 53862). STARLINK-4792 can be tracked NOW for your location showing map with azimuth and elevation plus other details from your city location.







IsCatalogInMostPopularTable: catalog: 53862, numindb: -1

Insert: records affected: 1


GetName: 53862 STARLINK-4792

Hit Count: inserted at: Thu, 08 Dec 2022 09:47:07 GMT